Theta_e
342 344 342 341 345 346 348 346 344 342 340 338 335 333 331 328 329 327 328 346 355 356 357 354 350 348 347 346 346 341 340 339 338 337 336 336 336 336 336 333 333 331 329
342 340 340 340 343 346 346 346 342 341 339 337 334 332 330 328 328 327 331 338 355 353 355 355 353 350 348 347 345 342 343 343 340 341 340 339 334 330 330 331 329 327 324
346 342 340 339 341 345 344 344 342 340 338 335 333 332 329 329 328 327 332 339 348 353 353 354 353 352 350 348 345 344 344 345 341 337 331 329 326 324 324 323 321 320 320
347 342 341 339 341 342 342 342 341 338 336 335 333 332 330 327 328 331 335 341 345 348 352 353 353 353 352 349 347 346 341 336 333 329 325 321 319 318 317 318 319 320 320
346 344 342 343 340 341 341 341 340 339 335 334 333 331 328 327 328 335 341 342 344 347 345 350 351 351 351 350 347 345 338 333 328 322 318 316 315 315 316 317 318 319 319
344 343 344 341 341 339 340 342 340 339 338 335 335 332 329 329 331 337 341 343 342 344 343 343 347 347 349 349 346 342 337 330 323 319 316 313 313 314 315 316 316 317 317
343 341 341 343 343 342 340 341 341 338 335 334 326 325 328 334 334 337 341 341 341 342 341 341 342 340 341 344 344 339 334 327 322 317 313 311 312 313 314 314 315 315 316
330 336 339 340 341 341 340 338 336 334 334 334 327 323 321 327 335 337 339 342 343 342 340 340 338 335 335 336 335 336 330 326 320 316 313 311 311 311 311 312 313 314 314
328 334 339 340 340 340 339 339 337 333 332 330 330 328 322 321 326 332 334 335 336 337 336 334 334 332 331 329 333 329 327 321 318 314 312 310 308 309 310 310 311 311 312
329 334 337 340 340 339 339 340 338 336 334 332 330 332 331 329 325 324 328 328 331 334 332 331 331 329 326 324 326 325 323 318 314 313 310 309 307 308 308 310 310 310 312
326 328 331 332 335 336 339 336 335 333 331 333 331 331 331 331 331 327 323 322 326 327 329 328 327 324 322 321 318 320 320 315 313 310 309 309 308 307 307 309 309 310 311
321 325 329 329 327 326 331 332 330 331 330 330 331 331 330 327 328 325 319 318 322 321 323 322 320 318 318 319 319 320 318 316 314 313 310 310 309 309 307 308 308 309 311
315 320 322 323 327 332 333 334 330 331 333 334 335 333 332 331 332 330 324 319 318 318 318 319 318 315 315 313 313 316 315 315 314 314 312 311 311 311 308 307 307 308 308
315 321 322 321 320 320 321 328 335 336 333 334 334 334 334 332 331 331 327 323 315 315 315 313 313 310 312 312 312 315 309 314 314 313 314 314 313 313 310 307 307 306 306
316 319 324 322 323 323 322 324 328 329 331 333 333 333 333 334 333 331 328 327 322 311 311 311 308 307 307 308 310 306 303 306 311 314 314 315 316 314 309 306 306 305 305
313 316 319 320 322 325 328 328 329 330 329 330 332 330 328 331 331 331 330 328 325 322 315 310 306 306 307 308 309 302 303 304 306 310 312 312 313 311 308 306 305 304 304
309 313 317 319 321 322 325 326 326 326 325 328 329 330 329 329 328 328 329 328 325 324 318 303 306 304 303 300 299 300 300 297 298 313 311 310 309 309 308 306 304 303 303
308 311 316 320 320 322 323 323 325 326 322 318 318 316 314 313 308 308 311 306 311 309 307 300 301 299 298 298 297 298 299 301 303 307 306 306 307 307 304 303 302 302 302
308 312 318 318 319 322 324 320 318 313 310 309 309 308 305 305 303 304 304 304 303 303 302 298 294 296 296 296 296 296 295 295 301 304 302 302 302 304 303 302 302 302 301
307 311 316 317 321 320 315 314 309 306 305 305 305 305 304 303 302 302 303 302 301 299 297 295 294 293 294 294 294 293 293 292 292 297 299 299 300 303 301 301 301 301 300
309 313 316 315 316 315 314 308 306 305 305 305 305 305 305 306 306 305 302 301 300 299 297 294 292 292 292 292 291 290 290 289 291 290 290 292 291 291 295 298 299 300 300
306 309 312 314 310 309 305 307 307 305 304 302 301 302 304 306 305 305 305 304 301 296 292 292 291 291 290 290 290 289 289 288 286 291 289 289 290 293 295 297 300 300 299
305 312 310 306 304 305 302 303 305 303 301 301 300 300 300 301 300 301 303 302 300 298 297 293 291 290 289 290 290 288 287 287 287 290 287 287 289 291 291 297 300 299 299
309 306 305 303 303 302 301 300 301 300 300 300 300 298 297 297 297 296 296 295 295 294 293 294 292 291 291 291 290 290 289 288 288 290 289 290 293 292 294 296 299 300 299
304 302 302 301 301 302 300 298 299 299 298 297 297 296 296 295 296 295 293 292 292 293 299 298 296 295 293 294 294 291 288 287 285 286 290 293 293 291 294 295 297 299 298
300 300 299 301 301 299 299 297 298 297 296 296 296 296 298 295 294 294 292 291 289 289 291 291 290 292 294 296 297 291 288 286 284 285 289 292 292 291 290 292 296 297 297
Wind_Speed
3 3 4 3 5 4 8 8 6 6 6 6 7 7 8 6 6 4 4 13 15 17 17 17 18 19 18 15 13 12 11 11 10 10 10 11 10 9 8 4 9 10 12
5 4 4 5 6 7 8 9 7 6 6 5 8 8 9 5 7 7 5 6 17 17 16 17 17 19 18 16 13 12 11 11 11 11 10 6 3 3 6 8 10 12 12
7 6 6 6 7 6 7 6 5 5 5 5 8 8 8 8 7 7 6 6 8 18 17 17 18 18 18 16 13 12 11 10 3 3 4 4 4 4 7 10 10 10 10
8 7 6 6 6 5 5 6 7 6 6 7 7 8 8 6 6 7 7 8 8 9 14 18 17 18 17 15 13 12 9 8 7 5 5 4 4 5 7 8 9 10 11
8 8 6 7 6 5 7 7 7 6 6 7 7 6 6 6 6 7 8 9 9 9 7 14 17 16 15 14 13 12 12 10 7 6 4 3 5 6 7 8 10 11 11
7 6 6 7 6 5 7 8 10 7 8 8 6 6 5 5 5 5 7 6 7 9 8 6 8 9 14 14 13 14 12 10 8 6 4 2 4 5 7 7 9 10 10
6 5 6 7 7 8 11 11 8 7 6 3 1 3 4 6 6 6 5 6 8 8 6 6 5 5 7 14 15 15 13 11 8 6 4 2 2 5 8 9 9 10 10
6 6 7 8 10 8 10 8 5 3 4 4 5 1 3 3 3 6 5 6 9 7 8 8 8 8 6 5 9 16 13 11 8 6 4 1 3 5 7 8 9 10 11
7 7 9 8 9 9 8 9 7 8 7 4 9 5 3 6 1 2 5 5 4 5 4 6 7 8 7 6 10 12 14 10 7 5 5 2 1 4 6 8 9 10 11
7 7 9 10 9 7 9 8 7 7 7 9 4 7 7 2 3 4 2 2 4 6 6 6 7 7 6 4 10 12 13 10 7 6 5 3 1 3 6 8 8 8 11
7 7 7 8 9 5 6 8 8 10 8 8 9 4 5 8 10 7 8 3 2 2 4 5 5 4 5 5 4 8 12 10 8 4 4 5 5 4 4 6 6 9 12
5 7 7 6 7 7 7 8 8 9 8 7 7 7 10 6 10 5 4 1 2 1 2 2 4 3 2 2 6 11 12 8 6 6 8 9 8 8 7 5 5 8 11
5 7 6 6 5 7 7 5 6 8 8 9 11 9 7 8 4 4 4 3 1 1 1 1 1 3 4 3 5 11 11 7 5 8 10 11 10 11 10 7 6 7 9
7 8 7 6 7 7 8 8 6 8 7 9 12 10 10 9 10 11 11 8 3 2 1 2 3 2 4 3 8 10 4 5 6 8 10 13 13 13 12 9 7 7 8
8 10 8 7 7 7 7 8 6 9 7 8 10 11 10 10 10 12 8 7 7 5 5 3 1 5 3 4 4 2 1 1 4 6 8 10 11 12 10 8 7 6 6
9 11 9 9 7 6 6 8 7 7 8 6 6 9 9 8 9 9 11 9 6 8 7 2 3 1 7 4 3 2 2 3 3 4 1 1 3 5 7 6 5 4 6
9 10 10 7 8 7 6 6 7 6 6 6 8 9 9 6 7 7 8 9 9 8 9 2 3 5 4 6 6 4 5 3 3 8 10 9 7 5 3 7 8 6 10
9 9 10 7 7 7 6 7 7 5 3 3 3 6 6 5 7 6 3 6 5 4 3 7 10 5 5 5 6 3 3 3 5 15 15 14 11 7 9 8 7 8 10
10 10 7 7 6 6 3 4 2 6 7 7 6 7 7 8 7 5 6 6 8 8 10 9 7 3 4 4 3 3 3 4 4 11 13 11 10 5 7 6 8 10 11
10 11 7 6 4 3 4 3 5 9 9 8 8 9 8 8 7 7 7 7 9 12 14 13 9 5 4 3 3 3 4 3 3 4 6 8 10 6 6 7 11 13 12
10 10 6 3 5 4 2 7 8 10 10 10 10 9 8 12 15 11 7 8 9 10 9 9 8 3 3 3 1 1 2 1 3 4 3 3 3 2 2 7 7 13 14
11 7 2 6 7 6 13 14 12 11 11 12 12 12 12 17 19 20 19 17 12 10 9 7 5 5 3 4 0 2 2 4 3 3 4 4 2 3 2 2 12 14 15
7 4 6 9 10 9 16 18 18 11 11 11 11 10 10 9 14 11 16 17 15 13 6 4 9 4 7 2 2 2 3 2 1 3 0 3 3 2 2 2 14 15 16
3 5 7 9 12 9 20 22 21 14 12 12 12 10 10 12 14 12 9 8 6 5 6 6 9 6 6 5 3 2 3 3 1 3 1 2 2 2 2 1 11 16 16
6 7 7 9 13 10 15 20 18 14 14 13 10 10 11 11 11 5 7 8 7 6 10 15 14 10 9 9 6 3 3 3 0 2 3 3 4 3 2 2 5 15 15
8 8 11 10 14 11 9 12 15 13 14 10 11 9 11 11 14 11 7 6 7 3 3 6 5 7 8 9 10 6 1 3 0 2 3 2 4 4 3 2 5 6 5
Wind_Direction
208 222 228 206 213 202 228 234 227 220 232 240 248 248 254 226 231 231 230 243 220 214 207 205 208 211 215 211 202 202 206 211 222 226 233 244 255 269 295 302 308 317 325
208 202 214 226 233 221 216 223 221 228 234 232 251 252 256 231 224 229 234 230 217 218 214 208 214 216 214 213 203 208 215 219 234 245 250 276 64 355 332 320 315 326 319
219 211 221 223 233 235 244 241 227 223 236 237 244 247 247 240 228 224 227 217 223 214 212 210 213 220 215 210 203 211 225 236 246 112 110 72 39 353 336 325 327 319 311
202 210 230 228 237 227 226 237 241 234 228 233 245 250 248 239 225 225 218 214 214 212 212 210 213 220 214 208 202 209 145 142 136 117 89 53 10 345 337 328 326 317 316
214 212 220 235 204 212 238 230 236 231 238 234 229 241 248 253 233 235 218 213 211 209 208 212 210 215 214 205 205 161 161 159 140 120 104 47 2 346 335 335 326 320 319
236 226 237 226 208 193 232 234 234 221 236 245 246 237 235 252 253 228 219 215 201 207 201 193 201 204 202 200 176 172 168 159 151 143 108 61 11 346 322 328 325 317 312
248 231 243 244 230 230 234 234 224 228 234 250 359 279 249 217 234 239 222 222 210 205 201 192 183 171 179 180 177 172 170 167 161 153 130 64 356 333 337 338 325 316 314
318 276 242 238 233 230 234 229 199 212 233 220 227 223 283 289 207 209 212 217 217 202 194 188 176 168 164 169 171 166 177 179 179 170 145 103 345 359 358 339 328 318 323
306 293 280 256 231 226 232 224 205 189 230 222 223 197 221 222 184 171 207 189 192 197 195 186 176 173 170 169 169 169 180 184 185 176 176 204 340 352 351 344 334 331 322
295 288 286 275 247 227 223 223 208 209 208 235 220 235 261 335 261 243 248 226 164 198 192 195 184 187 167 158 169 174 174 184 187 190 193 211 212 322 340 343 342 335 330
294 292 277 276 265 230 224 205 215 210 209 209 202 200 234 236 257 259 250 232 139 170 228 198 182 183 154 166 157 184 175 183 194 198 205 224 225 251 300 332 342 337 333
283 288 292 273 264 262 229 219 221 219 221 235 240 205 216 219 223 246 227 162 211 160 237 167 145 139 136 162 174 186 185 191 189 196 210 227 233 249 267 295 322 334 333
292 290 295 290 280 280 279 244 223 222 221 224 225 222 197 214 219 220 245 94 169 132 125 79 61 134 118 118 232 184 191 179 199 211 222 240 248 255 260 274 297 323 328
280 279 281 274 272 264 269 262 244 242 226 218 227 230 226 219 223 246 238 218 170 133 230 300 134 94 105 162 230 204 183 198 213 231 234 244 249 246 252 264 285 309 320
290 287 280 277 267 268 254 249 252 253 236 232 232 229 223 218 204 204 203 200 178 157 162 172 263 145 136 272 248 196 166 314 277 280 263 248 238 234 243 258 280 303 325
293 295 281 288 284 272 256 251 236 242 237 236 226 226 218 217 212 209 209 209 190 206 208 136 189 141 154 199 167 17 68 66 338 325 234 213 266 266 267 273 307 43 347
289 287 282 284 286 285 276 255 240 240 236 233 240 239 231 214 194 199 210 212 211 206 206 145 101 95 81 83 59 31 356 12 360 61 62 50 26 331 319 83 75 30 348
286 282 274 263 278 287 288 256 246 242 225 246 52 64 66 54 47 29 37 95 73 43 131 121 123 80 84 69 64 95 306 37 65 60 55 44 33 79 89 79 44 356 343
288 292 272 269 298 293 297 336 13 66 55 40 54 71 85 89 82 90 106 87 95 93 85 102 101 90 88 72 200 119 48 13 43 62 50 39 26 114 89 49 11 349 350
287 284 267 284 5 22 76 78 79 81 77 65 61 67 74 86 95 87 77 88 110 111 113 114 106 93 96 210 234 123 96 40 46 32 30 34 21 122 64 28 3 346 357
290 274 267 40 75 74 92 95 95 89 88 84 73 76 85 97 94 92 95 91 95 102 108 110 101 127 169 118 64 56 102 294 19 38 0 348 353 310 347 19 9 6 3
296 296 52 82 73 79 95 102 103 93 83 82 81 74 73 80 86 83 81 78 80 93 90 86 111 122 159 83 40 73 75 42 10 7 32 321 299 296 230 331 5 5 7
304 61 80 87 94 99 99 99 96 91 90 87 85 80 74 64 60 61 62 66 69 82 88 144 121 159 82 114 109 66 76 104 123 301 80 299 294 310 302 331 17 13 9
45 83 88 98 100 108 110 106 100 95 92 89 84 81 86 80 74 64 68 83 67 56 66 81 76 76 95 111 105 109 133 143 15 305 252 297 289 334 347 1 7 1 1
81 84 88 104 107 109 114 113 111 106 98 91 83 81 80 81 85 65 98 101 72 52 65 81 81 86 100 84 71 74 58 99 300 274 327 309 4 342 341 333 359 2 3
94 96 89 87 98 97 94 111 117 116 106 103 91 89 80 93 92 86 83 86 95 30 58 56 54 56 70 61 48 54 66 101 173 344 295 358 357 10 340 320 346 353 347